Whiteman AFB, MO

10:51 AM CDT on May 25, 2018 (GMT -0500)
Whiteman Air Force Base

Weather History for KSZL - June, 2014

Change the Weather History Date:

Sunday, June 1, 2014

  Actual Average Record
Temperature  
Mean Temperature 76 °F -  
Max Temperature 85 °F 76 °F 91 °F (2002)
Min Temperature 68 °F 57 °F 44 °F (2001)
Cooling Degree Days 11    
Growing Degree Days 26 (Base 50)    
Moisture  
Dew Point 63 °F    
Average Humidity 65    
Maximum Humidity 83    
Minimum Humidity 46    
Precipitation  
Precipitation 0.00 in - - ()
Sea Level Pressure  
Sea Level Pressure 29.92 in    
Wind  
Wind Speed 10 mph (South)    
Max Wind Speed 20 mph    
Max Gust Speed 26 mph    
Visibility 10 miles    
Events Rain    
Averages and records for this station are not official NWS values.
T = Trace of Precipitation, MM = Missing Value Source: NWS Daily Summary

Daily Weather History Graph

Daily Weather History Graph

Search for Another Location

Airport or City:

Astronomy

Jun. 01, 2014 Rise Set
Actual Time 5:51 AM CDT 8:33 PM CDT
Civil Twilight 5:19 AM CDT 9:04 PM CDT
Nautical Twilight 4:40 AM CDT 9:43 PM CDT
Astronomical Twilight 3:56 AM CDT 10:28 PM CDT
Moon 9:22 AM CDT (6/1) 11:30 PM CDT (6/1)
Length of Visible Light 15h 44m
Length of Day
14h 42m
Waxing Crescent, 14% of the Moon is Illuminated
Jun 1
Waxing Crescent
Jun 5
First Quarter
Jun 12
Full
Jun 19
Last Quarter
Jun 27
New

Hourly Weather History & Observations

Time (CDT) Temp. Heat Index Dew Point Humidity Pressure Visibility Wind Dir Wind Speed Gust Speed Precip Events Conditions
12:58 AM 71.1 °F - 63.1 °F 76% 29.99 in 10.0 mi South 6.9 mph - N/A   Clear
1:58 AM 68.9 °F - 62.6 °F 80% 29.99 in 10.0 mi South 4.6 mph - N/A   Clear
2:58 AM 68.9 °F - 62.8 °F 81% 29.98 in 10.0 mi South 4.6 mph - N/A   Clear
3:58 AM 68.2 °F - 62.6 °F 82% 29.99 in 10.0 mi SSE 5.8 mph - N/A   Clear
4:58 AM 68.9 °F - 62.6 °F 80% 29.97 in 10.0 mi SSE 8.1 mph - N/A   Clear
5:58 AM 68.0 °F - 62.6 °F 83% 29.99 in 10.0 mi South 5.8 mph - N/A   Clear
6:58 AM 69.3 °F - 63.3 °F 81% 29.99 in 10.0 mi South 6.9 mph - N/A   Clear
7:58 AM 72.5 °F - 64.2 °F 75% 29.99 in 10.0 mi South 10.4 mph - N/A   Clear
8:58 AM 75.2 °F - 64.0 °F 68% 29.98 in 10.0 mi SSW 12.7 mph - N/A   Clear
9:58 AM 77.9 °F - 64.2 °F 63% 29.98 in 10.0 mi South 15.0 mph - N/A   Scattered Clouds
10:58 AM 79.7 °F - 62.8 °F 56% 29.97 in 10.0 mi SSW 12.7 mph - N/A   Partly Cloudy
11:58 AM 81.3 °F 82.6 °F 63.3 °F 54% 29.96 in 10.0 mi South 12.7 mph - N/A   Clear
12:58 PM 83.5 °F 84.7 °F 63.7 °F 51% 29.94 in 10.0 mi South 13.8 mph 21.9 mph N/A   Clear
1:58 PM 83.7 °F 84.5 °F 62.4 °F 49% 29.92 in 10.0 mi South 17.3 mph - N/A   Clear
2:58 PM 84.4 °F 85.0 °F 62.2 °F 47% 29.90 in 10.0 mi South 16.1 mph - N/A   Partly Cloudy
3:36 PM 80.6 °F 82.3 °F 64.4 °F 58% 29.90 in 9.0 mi SSW 17.3 mph 26.5 mph N/A Rain Light Rain
3:48 PM 78.8 °F - 64.4 °F 61% 29.89 in 10.0 mi SSW 16.1 mph - N/A   Clear
3:58 PM 79.2 °F - 64.0 °F 60% 29.88 in 10.0 mi SSW 11.5 mph - 0.00 in   Mostly Cloudy
4:58 PM 83.7 °F 83.9 °F 61.0 °F 46% 29.84 in 10.0 mi SSW 18.4 mph 26.5 mph N/A   Mostly Cloudy
5:58 PM 82.9 °F 83.7 °F 62.2 °F 49% 29.82 in 10.0 mi South 19.6 mph 25.3 mph N/A   Scattered Clouds
6:58 PM 81.3 °F 81.9 °F 60.6 °F 49% 29.80 in 10.0 mi South 18.4 mph 26.5 mph N/A   Clear
7:58 PM 78.6 °F - 62.4 °F 57% 29.83 in 10.0 mi SSW 10.4 mph - N/A   Scattered Clouds
8:58 PM 76.5 °F - 63.0 °F 63% 29.85 in 10.0 mi South 6.9 mph - N/A   Partly Cloudy
9:58 PM 75.9 °F - 63.1 °F 64% 29.87 in 10.0 mi South 9.2 mph - N/A   Clear
10:58 PM 75.4 °F - 66.0 °F 73% 29.89 in 10.0 mi South 9.2 mph - N/A   Partly Cloudy
11:58 PM 75.0 °F - 65.1 °F 71% 29.86 in 10.0 mi South 15.0 mph - N/A   Partly Cloudy